TimeMDT,TemperatureF,Dew PointF,Humidity,Sea Level PressureIn,VisibilityMPH,Wind Direction,Wind SpeedMPH,Gust SpeedMPH,PrecipitationIn,Events,Conditions,WindDirDegrees,DateUTC
12:53 AM,64.9,34.0,32,29.91,10.0,ENE,3.5,-,N/A,,Clear,60,2013-06-16 06:53:00
1:53 AM,60.1,36.0,41,29.91,10.0,NE,4.6,-,N/A,,Clear,40,2013-06-16 07:53:00
2:53 AM,55.9,34.0,44,29.93,10.0,Calm,Calm,-,N/A,,Clear,0,2013-06-16 08:53:00
3:53 AM,54.0,33.1,45,29.94,10.0,SE,5.8,-,N/A,,Clear,140,2013-06-16 09:53:00
4:53 AM,55.9,33.1,42,29.95,10.0,Calm,Calm,-,N/A,,Clear,0,2013-06-16 10:53:00
5:53 AM,54.0,34.0,47,29.98,10.0,Calm,Calm,-,N/A,,Clear,0,2013-06-16 11:53:00
6:53 AM,55.9,37.0,49,29.99,10.0,Calm,Calm,-,N/A,,Clear,0,2013-06-16 12:53:00
7:53 AM,62.1,36.0,38,29.99,10.0,NNE,5.8,-,N/A,,Clear,30,2013-06-16 13:53:00
8:53 AM,66.9,37.0,33,30.00,10.0,SSE,3.5,-,N/A,,Clear,150,2013-06-16 14:53:00
9:53 AM,68.0,37.9,33,30.01,6.0,South,4.6,-,0.00,Rain,Light Rain,180,2013-06-16 15:53:00
10:05 AM,66.2,44.6,46,30.21,10.0,ENE,3.5,-,0.00,Thunderstorm,Overcast,70,2013-06-16 16:05:00
10:37 AM,71.6,39.2,31,30.22,10.0,NNE,6.9,-,0.00,,Mostly Cloudy,30,2013-06-16 16:37:00
10:53 AM,71.1,39.0,31,30.03,10.0,North,4.6,-,0.00,,Mostly Cloudy,10,2013-06-16 16:53:00
11:53 AM,73.0,41.0,31,30.03,10.0,ENE,12.7,-,N/A,,Partly Cloudy,70,2013-06-16 17:53:00
12:53 PM,78.1,39.9,25,29.98,10.0,ENE,6.9,16.1,N/A,,Clear,70,2013-06-16 18:53:00
1:53 PM,79.0,39.0,24,29.96,10.0,Variable,3.5,-,N/A,,Clear,0,2013-06-16 19:53:00
2:48 PM,80.6,37.4,21,30.13,10.0,SSE,9.2,-,N/A,Thunderstorm,Clear,150,2013-06-16 20:48:00
2:53 PM,80.1,37.0,21,29.95,10.0,Variable,4.6,-,N/A,Thunderstorm,Clear,0,2013-06-16 20:53:00
3:15 PM,80.6,35.6,20,30.13,10.0,NE,9.2,-,N/A,,Clear,50,2013-06-16 21:15:00
3:53 PM,79.0,42.1,27,29.95,10.0,North,13.8,19.6,N/A,,Scattered Clouds,360,2013-06-16 21:53:00
4:53 PM,81.0,37.0,21,29.91,10.0,NE,8.1,-,N/A,,Clear,50,2013-06-16 22:53:00
5:53 PM,80.1,36.0,20,29.91,10.0,Calm,Calm,-,N/A,,Clear,0,2013-06-16 23:53:00
6:53 PM,80.1,39.9,24,29.89,10.0,East,8.1,-,N/A,,Clear,90,2013-06-17 00:53:00
7:53 PM,75.0,39.9,28,29.90,10.0,ENE,13.8,23.0,N/A,Thunderstorm,Thunderstorm,70,2013-06-17 01:53:00
8:25 PM,71.6,41.0,33,30.10,10.0,East,17.3,20.7,0.00,,Partly Cloudy,80,2013-06-17 02:25:00
8:53 PM,70.0,42.1,36,29.91,10.0,East,16.1,24.2,0.00,,Clear,80,2013-06-17 02:53:00
9:53 PM,68.0,42.1,39,29.94,10.0,ENE,12.7,-,N/A,,Clear,70,2013-06-17 03:53:00
10:53 PM,64.0,43.0,46,29.97,10.0,Variable,3.5,-,N/A,,Clear,0,2013-06-17 04:53:00
11:53 PM,60.1,42.1,51,29.96,10.0,SE,4.6,-,N/A,,Clear,140,2013-06-17 05:53:00